Погода в Макушино

Россия / Курганская область     55°12′18″N   67°14′54″E
темп.,
°C
ветер,
м/с
пор.,
м/с
влажн.,
%
обл.,
%
осадки,
мм/ч
давл.,
гПа
погр.,
м
26 февраля, пт
пт2623:00−25зсз349872 0.1 102882
02:00−25з339896 0.1 102964
05:00−28з339989 0.1 103125
08:00−29зюз239993 0.0 103126
11:00−25юз239675 0.0 1032167
14:00−23юз349455 0.0 1032262
17:00−24ююз339660 0.0 103253
20:00−28ююз34970 0.0 103250
27 февраля, сб
сб2723:00−29ююз34960 0.0 103244
02:00−30ю34970 0.0 103142
05:00−31ю349816 0.0 103159
08:00−31ююв479847 0.0 1029101
11:00−26ююв479526 0.0 1028233
14:00−22юв58940 0.0 1026262
17:00−21юв6119430 0.0 1023290
20:00−18юв71396100 0.2 1021355
28 февраля, вс
вс2823:00−13юв71394100 0.9 1018572
02:00−12юв71294100 0.8 1015589
05:00−12юв61293100 1.3 1013490
08:00−12юв71193100 0.3 1011419
11:00−10вюв71193100 0.4 1009444
14:00−8вюв61094100 0.3 1007475
17:00−8в5994100 0.8 1006441
20:00−8в5995100 0.3 1006310
1 марта, пн
пн123:00−10всв4795100 0.8 1006246
02:00−10св4695100 0.8 1007230
05:00−12св4695100 1.3 1008217
08:00−14с4695100 0.4 1009251
11:00−14с469396 0.4 1011320
14:00−13ссз4692100 0.0 1013411
17:00−14сз3694100 0.1 1015204
20:00−18сз349783 0.0 101748
2 марта, вт
вт223:00−20зсз339962 0.0 101825
02:00−21зсз3310062 0.0 101923
05:00−23з3310076 0.0 101928
08:00−24з339985 0.0 101927
11:00−20зюз349643 0.0 1019200
14:00−17юз359362 0.0 1018263
17:00−17юз359561 0.0 1017118
20:00−20юз45980 0.0 101777